| time (UTC) | temp F | wind direction | speed MPH | gust MPH | rain 1hr in | rain 24hr in | rain mn in | humidity % | barometer mb |
| 20260507214600 | 60 | 159 | 2.0 | 4.0 | 0.00 | 0.04 | 0.02 | 63 | 1009.2 |
| 20260507213103 | 60 | 149 | 2.0 | 4.0 | 0.00 | 0.04 | 0.02 | 63 | 1009.2 |
| 20260507211554 | 60 | 145 | 2.0 | 5.0 | 0.00 | 0.04 | 0.02 | 62 | 1009.2 |
| 20260507210056 | 61 | 141 | 3.0 | 4.0 | 0.00 | 0.04 | 0.02 | 60 | 1009.4 |
| 20260507204606 | 61 | 0 | 2.0 | 4.0 | 0.00 | 0.04 | 0.02 | 61 | 1009.3 |
| 20260507203106 | 61 | 136 | 4.0 | 7.0 | 0.00 | 0.04 | 0.02 | 60 | 1009.4 |
| 20260507201601 | 62 | 173 | 1.0 | 4.0 | 0.00 | 0.04 | 0.02 | 61 | 1009.4 |
| 20260507200058 | 62 | 139 | 2.0 | 5.0 | 0.00 | 0.04 | 0.02 | 60 | 1009.3 |
| 20260507194556 | 61 | 142 | 3.0 | 6.0 | 0.00 | 0.04 | 0.02 | 60 | 1009.8 |
| 20260507193101 | 60 | 148 | 3.0 | 6.0 | 0.00 | 0.04 | 0.02 | 60 | 1010.0 |
| 20260507191557 | 60 | 140 | 3.0 | 6.0 | 0.00 | 0.04 | 0.02 | 63 | 1010.1 |
| 20260507190054 | 60 | 142 | 4.0 | 9.0 | 0.00 | 0.04 | 0.02 | 62 | 1010.0 |
| 20260507184558 | 62 | 143 | 2.0 | 4.0 | 0.00 | 0.04 | 0.02 | 59 | 1010.2 |
| 20260507183103 | 63 | 144 | 2.0 | 5.0 | 0.00 | 0.04 | 0.02 | 59 | 1010.2 |
| 20260507181558 | 62 | 148 | 2.0 | 5.0 | 0.00 | 0.04 | 0.02 | 57 | 1010.3 |
| 20260507174606 | 61 | 224 | 0.0 | 3.0 | 0.00 | 0.04 | 0.02 | 56 | 1010.6 |
| 20260507173103 | 59 | 19 | 3.0 | 8.0 | 0.00 | 0.04 | 0.02 | 54 | 1010.6 |
| 20260507171613 | 59 | 293 | 2.0 | 5.0 | 0.00 | 0.04 | 0.02 | 54 | 1011.1 |
| 20260507170100 | 58 | 34 | 1.0 | 6.0 | 0.00 | 0.04 | 0.02 | 59 | 1011.5 |
| 20260507164610 | 57 | 0 | 1.0 | 3.0 | 0.00 | 0.04 | 0.02 | 58 | 1012.1 |
| 20260507163059 | 57 | 356 | 1.0 | 5.0 | 0.00 | 0.04 | 0.02 | 57 | 1012.3 |
| 20260507161604 | 56 | 97 | 1.0 | 4.0 | 0.00 | 0.04 | 0.02 | 59 | 1012.4 |
| 20260507160105 | 56 | 239 | 1.0 | 6.0 | 0.00 | 0.04 | 0.02 | 59 | 1012.4 |
| 20260507154558 | 56 | 5 | 1.0 | 3.0 | 0.00 | 0.04 | 0.02 | 60 | 1012.3 |
| 20260507153109 | 55 | 0 | 1.0 | 4.0 | 0.00 | 0.04 | 0.02 | 62 | 1012.4 |
| 20260507151601 | 55 | 8 | 0.0 | 5.0 | 0.00 | 0.04 | 0.02 | 63 | 1012.7 |
| 20260507150107 | 54 | 11 | 0.0 | 3.0 | 0.00 | 0.04 | 0.02 | 67 | 1012.8 |
| 20260507144559 | 54 | 28 | 1.0 | 5.0 | 0.00 | 0.08 | 0.02 | 64 | 1013.1 |
| 20260507143105 | 54 | 0 | 0.0 | 4.0 | 0.00 | 0.08 | 0.02 | 65 | 1013.2 |
| 20260507141558 | 53 | 357 | 0.0 | 3.0 | 0.00 | 0.08 | 0.02 | 66 | 1013.4 |
| 20260507140056 | 53 | 0 | 0.0 | 2.0 | 0.00 | 0.08 | 0.02 | 68 | 1013.3 |
| 20260507134559 | 53 | 321 | 0.0 | 2.0 | 0.00 | 0.15 | 0.02 | 71 | 1013.5 |
| 20260507133101 | 52 | 0 | 0.0 | 1.0 | 0.00 | 0.15 | 0.02 | 73 | 1013.6 |
| 20260507131622 | 52 | 0 | 0.0 | 2.0 | 0.00 | 0.15 | 0.02 | 71 | 1013.7 |
| 20260507130104 | 53 | 0 | 0.0 | 4.0 | 0.00 | 0.15 | 0.02 | 70 | 1013.5 |
| 20260507124558 | 53 | 330 | 0.0 | 3.0 | 0.00 | 0.22 | 0.02 | 72 | 1013.5 |
| 20260507123107 | 53 | 302 | 0.0 | 6.0 | 0.00 | 0.22 | 0.02 | 71 | 1013.3 |
| 20260507121605 | 53 | 73 | 1.0 | 7.0 | 0.00 | 0.22 | 0.02 | 75 | 1013.4 |
| 20260507120058 | 53 | 321 | 1.0 | 7.0 | 0.00 | 0.22 | 0.02 | 77 | 1013.3 |
| 20260507114600 | 53 | 358 | 0.0 | 3.0 | 0.00 | 0.23 | 0.02 | 78 | 1013.3 |
| 20260507113059 | 53 | 0 | 0.0 | 4.0 | 0.00 | 0.23 | 0.02 | 79 | 1013.1 |
| 20260507111558 | 53 | 53 | 0.0 | 2.0 | 0.00 | 0.23 | 0.02 | 80 | 1012.8 |
| 20260507110110 | 53 | 0 | 0.0 | 2.0 | 0.00 | 0.23 | 0.02 | 82 | 1012.6 |
| 20260507104556 | 53 | 0 | 1.0 | 2.0 | 0.00 | 0.23 | 0.02 | 84 | 1012.7 |
| 20260507103058 | 53 | 0 | 0.0 | 0.0 | 0.00 | 0.23 | 0.02 | 88 | 1012.6 |
| 20260507101558 | 53 | 0 | 0.0 | 0.0 | 0.00 | 0.23 | 0.02 | 89 | 1012.5 |
| 20260507100056 | 53 | 0 | 0.0 | 0.0 | 0.00 | 0.23 | 0.02 | 90 | 1012.3 |
| 20260507094608 | 53 | 0 | 0.0 | 0.0 | 0.00 | 0.23 | 0.02 | 90 | 1012.2 |
| 20260507093100 | 53 | 0 | 0.0 | 0.0 | 0.00 | 0.23 | 0.02 | 90 | 1012.2 |
| 20260507091640 | 53 | 0 | 0.0 | 0.0 | 0.00 | 0.23 | 0.02 | 90 | 1012.2 |
| 20260507090105 | 53 | 0 | 0.0 | 0.0 | 0.00 | 0.23 | 0.02 | 89 | 1011.8 |
| 20260507084557 | 53 | 0 | 0.0 | 0.0 | 0.00 | 0.23 | 0.02 | 89 | 1011.9 |
| 20260507083057 | 53 | 0 | 0.0 | 0.0 | 0.00 | 0.23 | 0.02 | 89 | 1012.3 |
| 20260507081555 | 53 | 0 | 0.0 | 2.0 | 0.00 | 0.23 | 0.02 | 88 | 1012.1 |
| 20260507080059 | 53 | 0 | 0.0 | 0.0 | 0.00 | 0.23 | 0.02 | 88 | 1011.9 |
| 20260507074555 | 53 | 0 | 0.0 | 1.0 | 0.00 | 0.23 | 0.02 | 89 | 1011.6 |
| 20260507073053 | 53 | 0 | 1.0 | 4.0 | 0.00 | 0.23 | 0.02 | 88 | 1011.5 |
| 20260507071559 | 54 | 0 | 0.0 | 2.0 | 0.00 | 0.23 | 0.02 | 90 | 1011.4 |
| 20260507070107 | 54 | 0 | 0.0 | 2.0 | 0.00 | 0.23 | 0.02 | 90 | 1011.5 |
| 20260507064600 | 54 | 0 | 1.0 | 5.0 | 0.00 | 0.23 | 0.02 | 90 | 1011.4 |
| 20260507063058 | 54 | 14 | 1.0 | 4.0 | 0.00 | 0.23 | 0.02 | 90 | 1011.3 |
| 20260507061555 | 55 | 0 | 0.0 | 2.0 | 0.00 | 0.23 | 0.02 | 90 | 1011.6 |
| 20260507060105 | 55 | 0 | 0.0 | 5.0 | 0.01 | 0.23 | 0.02 | 90 | 1011.6 |
| 20260507054557 | 55 | 306 | 1.0 | 4.0 | 0.01 | 0.23 | 0.02 | 90 | 1011.6 |
| 20260507053055 | 56 | 350 | 0.0 | 4.0 | 0.02 | 0.23 | 0.02 | 92 | 1011.2 |
| 20260507051557 | 56 | 6 | 0.0 | 2.0 | 0.01 | 0.22 | 0.01 | 93 | 1011.5 |
| 20260507050057 | 56 | 304 | 0.0 | 1.0 | 0.00 | 0.22 | 0.00 | 91 | 1011.4 |
| 20260507044555 | 57 | 0 | 0.0 | 4.0 | 0.00 | 0.22 | 0.00 | 89 | 1011.0 |
| 20260507043059 | 58 | 0 | 0.0 | 3.0 | 0.00 | 0.21 | 0.00 | 86 | 1011.3 |
| 20260507041555 | 58 | 5 | 2.0 | 9.0 | 0.00 | 0.21 | 0.00 | 85 | 1011.2 |
| 20260507040103 | 58 | 0 | 0.0 | 2.0 | 0.00 | 0.21 | 0.00 | 86 | 1011.5 |
| 20260507034601 | 59 | 0 | 0.0 | 2.0 | 0.00 | 0.21 | 0.21 | 86 | 1011.2 |
| 20260507033058 | 60 | 326 | 1.0 | 7.0 | 0.00 | 0.21 | 0.21 | 83 | 1010.6 |
| 20260507031557 | 61 | 44 | 2.0 | 11.0 | 0.00 | 0.21 | 0.21 | 83 | 1010.9 |
| 20260507030055 | 62 | 0 | 0.0 | 4.0 | 0.00 | 0.21 | 0.21 | 88 | 1010.9 |
| 20260507024600 | 62 | 354 | 2.0 | 5.0 | 0.00 | 0.21 | 0.21 | 88 | 1010.2 |
| 20260507023055 | 62 | 271 | 0.0 | 2.0 | 0.00 | 0.21 | 0.21 | 90 | 1010.3 |
| 20260507021558 | 62 | 354 | 0.0 | 4.0 | 0.00 | 0.21 | 0.21 | 91 | 1010.1 |
| 20260507020056 | 63 | 0 | 0.0 | 0.0 | 0.00 | 0.21 | 0.21 | 91 | 1010.1 |
| 20260507014556 | 63 | 0 | 0.0 | 1.0 | 0.00 | 0.21 | 0.21 | 91 | 1009.8 |
| 20260507013056 | 63 | 0 | 0.0 | 0.0 | 0.00 | 0.21 | 0.21 | 90 | 1010.1 |
| 20260507011556 | 64 | 0 | 1.0 | 4.0 | 0.00 | 0.21 | 0.21 | 90 | 1009.9 |
| 20260507010113 | 64 | 12 | 2.0 | 5.0 | 0.00 | 0.20 | 0.20 | 92 | 1010.2 |
| 20260507004557 | 65 | 323 | 0.0 | 4.0 | 0.01 | 0.20 | 0.20 | 93 | 1010.3 |
| 20260507003055 | 65 | 148 | 0.0 | 0.0 | 0.01 | 0.20 | 0.20 | 94 | 1009.7 |
| 20260507001601 | 65 | 0 | 0.0 | 1.0 | 0.01 | 0.20 | 0.20 | 93 | 1009.7 |
| 20260507000105 | 66 | 148 | 0.0 | 0.0 | 0.01 | 0.20 | 0.20 | 91 | 1009.8 |
| 20260506234616 | 67 | 0 | 0.0 | 0.0 | 0.00 | 0.18 | 0.18 | 89 | 1009.1 |
| 20260506233103 | 68 | 0 | 0.0 | 0.0 | 0.00 | 0.18 | 0.18 | 88 | 1009.0 |
| 20260506231557 | 69 | 0 | 0.0 | 2.0 | 0.00 | 0.18 | 0.18 | 83 | 1008.6 |
| 20260506230058 | 69 | 143 | 2.0 | 4.0 | 0.00 | 0.18 | 0.18 | 80 | 1008.7 |
| 20260506224556 | 69 | 139 | 2.0 | 4.0 | 0.00 | 0.18 | 0.18 | 80 | 1008.5 |
| 20260506223102 | 69 | 141 | 2.0 | 5.0 | 0.00 | 0.18 | 0.18 | 80 | 1008.6 |
| 20260506221612 | 69 | 144 | 3.0 | 5.0 | 0.00 | 0.18 | 0.18 | 79 | 1008.7 |
| 20260506220059 | 69 | 144 | 2.0 | 4.0 | 0.00 | 0.18 | 0.18 | 80 | 1008.5 |